KPIM

Details ICAO KPIM (PIM)
Name HARRIS CO
Region United States
Timezone America/New_York (UTC-4.0)
Plans Departing 0
Arriving 0
Stats Elevation 902 ft / 275 m (AMSL)
Location 32.840699° -84.882436°
Runways 1
Magnetic Variation 4.714° W
Sunrise 2018-05-27 10:35:22 UTC / 2018-05-27 06:35:22 Local
Sunset 2018-05-28 00:40:56 UTC / 2018-05-27 20:40:56 Local
Advertisement - Login to hide

Runways

ID Width Length Bearing (true) Bearing (mag) Surface Threshold Offset Overrun Length
09 100 ft / 30 m 4,993 ft / 1,522 m 88.38° 93.09° Asphalt 0 ft / 0 m 0 ft / 0 m
27 100 ft / 30 m 4,993 ft / 1,522 m 268.39° 273.10° Asphalt 0 ft / 0 m 0 ft / 0 m

Map

Weather


0- 5 10 15 20 25 30 35+ Temperature / ° C

Clouds and Precipitation
Forecast for 2018-05-27 06:00 UTC. Updated 14 minutes ago

Ground ~20,000 ft ~40,000 ft Winds

METAR

KPIM 270535Z AUTO 00000KT BKN110 21/21 A2994 RMK AO2 T02120205 PWINO

TAF

Not found

Frequencies

Unicom 122.80 MHz CTAF/UNICOM
Clearance 120.45 MHz CLNC DEL
Approach 126.55 MHz ATLANTA APP/DEP
Clearance 127.70 MHz CLNC DEL
Approach 125.50 MHz ATLANTA APP/DEP
Warning: Do not use this data for real-world aviation or navigation. No guarantee of current accuracy is given.